FENGYUN 1C DEB, 30408

Orbit data source: Space-Track

FENGYUN 1C DEB, 30408 is space debris in SSO originally from a launch on Mon, 10 May 1999 UTC launched from the Taiyaun Space Center, China (TSC). Fengyun 1C debris stems from the Chinese weather satellite Fengyun-1C, which was intentionally destroyed by a Chinese anti-satellite missile in 2007. This event dramatically increased the amount of space debris, with thousands of trackable fragments posing hazards to satellites and human spaceflight. The Fengyun 1C debris cloud has become a focal point in discussions about space sustainability and the need for international regulations to prevent the creation of new debris.

Loading next visibility...
Identifier
30408, 1999-025ADX
Orbit
SSO
Country
Flag of CNCN / PRC
Related business
Manufacturer
Unknown
Mission
Spacecraft
Bus & Motor
Unknown
Mass
Unknown
Launch date (UTC)
1999-05-10 (27 years ago)
Launch vehicle
Unknown
Launch site
Taiyaun Space Center, China (TSC)
Object type
Payload
Rocket body
Debris
Shape & HBR
Unknown shape, 1.1 m
Radar Cross Section
Medium (>0.1 m² and <1 m²)

Expand to show TLE details & history
Last TLE update: 1 day ago

TLE from 1 day ago
0 FENGYUN 1C DEB
1 30408U 99025ADX 26207.73963275  .00012607  00000-0  41390-2 0  9994
2 30408  99.0189 181.8198 0051166  12.7036 110.2737 14.37698045647811
Epoch: 2026-07-26T17:45Z
TLE epoch observation values (Epoch: 2026-07-26T17:45:04.269Z)
Latitude
55.52053°
Longitude
164.40947°
Altitude
788.133 km
Speed
7.458 km/s
True Right ascension
01h 00m 26s
True Declination
55° 21' 38"
Sunlit
Object was in daylight at epoch
Visualization orbit readout
Latitude
Unknown
Longitude
Unknown
Altitude
Unknown
Speed
Unknown
Apparent Right ascension
Unknown
Apparent Declination
Unknown
Sunlit
N/A
Visualization observer readout
Local Sidereal Time
07:11:47
Azimuth
Unknown
Elevation
Unknown
Doppler factor
Unknown
Orbital elements
Apogee altitude
799.804 km
Perigee altitude
726.725 km
Semi-major axis
7,141.401 km
Eccentricity
0.00512
Inclination
99.0189°
RAAN
181.8198°
Arg. of periapsis
12.7036°
True anomaly
110.82247°
Mean anomaly
110.2737°
Eccentric anomaly
110.54821°
Mean motion
3.5964 °/min
Orbital period
100.1 mins
BSTAR
0.004139
Loading maneuver chart data...
Computing Atmospheric mass density...

Documentation

Showing up to 5 results
|